Location: Gensac
(43.2177°N, 1.1313°E)
Time: 15:34:46
(UTC+00:00)

IRIDIUM 103 - Pass Details

Date: 08 December 2025
Orbit: 776 x 779 km, 86.4° (Epoch: 16 January)

Event Time Altitude Azimuth Distance (km) Brightness Sun altitude
Rises 06:27:34 0° 193° (SSW) 3,247 7.7 -8.5°
Reaches altitude 10° 06:29:57 10° 197° (SSW) 2,324 6.9 -8.1°
Maximum altitude 06:35:04 57° 276° (W) 920 4.4 -7.2°
Drops below altitude 10° 06:40:13 10° 355° (N) 2,342 6.5 -6.4°
Sets 06:42:38 0° 359° (N) 3,274 7.3 -6.0°
